This is the latest recevied weather packets stored in our database for station/object KK4KTV-13. If no packets are shown the sender has not sent any weather packets the latest 10 day(s).
| Time | Temp. | Humidity | Pressure | Rain* | Wind** | Luminosity | Snow |
|---|---|---|---|---|---|---|---|
| 1777760270 | 13.89° C | 49% | 1015.3 hPa | 0 mm | - | 212 W/m² | - |
| 1777759967 | 13.33° C | 51% | 1015.4 hPa | 0 mm | - | 224 W/m² | - |
| 1777759663 | 13.33° C | 52% | 1015.6 hPa | 0 mm | - | 245 W/m² | - |
| 1777759359 | 13.89° C | 52% | 1015.6 hPa | 0 mm | - | 102 W/m² | - |
| 1777759056 | 13.33° C | 52% | 1015.6 hPa | 0 mm | - | 295 W/m² | - |
| 1777758754 | 13.33° C | 51% | 1015.4 hPa | 0 mm | - | 312 W/m² | - |
| 1777758451 | 13.33° C | 52% | 1015.5 hPa | 0 mm | - | 297 W/m² | - |
| 1777758147 | 13.33° C | 52% | 1015.6 hPa | 0 mm | - | 311 W/m² | - |
| 1777757845 | 13.33° C | 52% | 1015.4 hPa | 0 mm | - | 308 W/m² | - |
| 1777757542 | 12.78° C | 52% | 1015.5 hPa | 0 mm | - | 348 W/m² | - |
| 1777757240 | 13.33° C | 51% | 1015.5 hPa | 0 mm | - | 232 W/m² | - |
| 1777756938 | 12.78° C | 52% | 1015.5 hPa | 0 mm | - | 258 W/m² | - |
| 1777756634 | 12.78° C | 52% | 1015.6 hPa | 0 mm | - | 197 W/m² | - |
| 1777756331 | 12.78° C | 52% | 1015.5 hPa | 0 mm | - | 134 W/m² | - |
| 1777756028 | 12.78° C | 52% | 1015.6 hPa | 0 mm | - | 150 W/m² | - |
| 1777755725 | 12.78° C | 51% | 1015.6 hPa | 0 mm | - | 178 W/m² | - |
| 1777755422 | 12.78° C | 54% | 1015.6 hPa | 0 mm | - | 201 W/m² | - |
| 1777755113 | 13.33° C | 52% | 1015.7 hPa | 0 mm | - | 241 W/m² | - |
| 1777754810 | 13.33° C | 52% | 1015.5 hPa | 0 mm | - | 320 W/m² | - |
| 1777754508 | 12.78° C | 52% | 1015.7 hPa | 0 mm | - | 264 W/m² | - |
| 1777754204 | 12.78° C | 54% | 1015.8 hPa | 0 mm | - | 174 W/m² | - |
| 1777753903 | 12.78° C | 54% | 1015.8 hPa | 0 mm | - | 176 W/m² | - |
| 1777753597 | 12.78° C | 54% | 1015.7 hPa | 0 mm | - | 180 W/m² | - |
| 1777753296 | 12.78° C | 54% | 1015.7 hPa | 0 mm | - | 138 W/m² | - |
| 1777752992 | 12.78° C | 56% | 1015.9 hPa | 0 mm | - | 123 W/m² | - |
* Rain latest hour (hover to see other rain measurements)
** Current wind speed in m/s (hover to see current wind gust speed)